Regional Weather Roundup
Issued by NWS

Home | Current Version | Previous Version | Text Only | Print | Product List | Glossary On
Versions: 1 2 3 4 5 6 7 8 9 10 11 12 13 14 15 16 17 18 19 20 21 22 23 24 25 26 27 28 29 30 31 32 33 34 35 36 37 38 39 40 41 42 43 44 45 46 47 48 49 50
000
ASUS44 KLIX 272212
RWRLA
LOUISIANA WEATHER ROUNDUP
NATIONAL WEATHER SERVICE NEW ORLEANS LA
500 PM CDT MON APR 27 2015

NOTE: "FAIR" INDICATES FEW OR NO CLOUDS BELOW 12,000 FEET WITH NO
      SIGNIFICANT WEATHER AND/OR OBSTRUCTIONS TO VISIBILITY.
      SKY/WX - SKY CONDITION AND SIGNIFICANT WEATHER.
      TMP - AIR TEMPERATURE.    DP   - DEWPOINT TEMPERATURE.
      RH  - RELATIVE HUMIDITY.  PRES - PRESSURE.
      HX  - HEAT INDEX.         WCI  - WIND CHILL INDEX.

*  THESE STATIONS ARE NOT NWS OR FAA STATIONS AND ARE NOT UNDER
   NWS QUALITY CONTROL.

LAZ040-048-061>063-065-066-069-272300-
SOUTHEAST LOUISIANA

CITY           SKY/WX    TMP DP  RH WIND       PRES   REMARKS
N.O. AUDUBON   NOT AVBL
N.O. INTL ARPT CLOUDY    72  63  73 E8        29.71R
N.O. LAKEFRONT CLOUDY    72  65  78 E18       29.73R
SLIDELL        CLOUDY    65  64  97 NE6       29.72R
BATON ROUGE    CLOUDY    68  63  84 E9G25     29.69F
BOOTHVILLE     PTSUNNY   74  65  73 E17G26    29.69F
BELLE CHASSE   CLOUDY    72  70  93 NE12      29.71R
BOGALUSA*        N/A     66  61  82 NE10G20   29.74F
GALLIANO*      CLOUDY    75  66  74 E6        29.69S
NEW ROADS*     CLOUDY    64  61  91 NE15      29.71R
GONZALES*      MOCLDY    68  65  90 NE6       29.69S
HAMMOND*       CLOUDY    66  61  82 NE6       29.72F
HOUMA*         PTSUNNY   73  68  83 NE12      29.69R FOG
PORT FOURCHON* CLEAR     75  66  73 E18G30    29.72R

$$

LAZ041-044-053-054-272300-
SOUTHWEST LOUISIANA

CITY           SKY/WX    TMP DP  RH WIND       PRES   REMARKS
LAKE CHARLES   PTSUNNY   72  64  76 E13       29.66S
LAFAYETTE      CLOUDY    70  64  81 NW21      29.75R
PATTERSON      NOT AVBL
SALT POINT       N/A     73  67  81 VRB5      29.65R
NEW IBERIA     PTSUNNY   72  65  78 NE9       29.67F
CHENAULT AIRPK NOT AVBL

$$

LAZ027-028-272300-
CENTRAL LOUISIANA

CITY           SKY/WX    TMP DP  RH WIND       PRES   REMARKS
FORT POLK      PTSUNNY   70  63  78 NE9       29.71F
ALEXANDRIA INT TSTM     N/A N/A N/A NE14      29.68F
ALEXANDRIA     LGT RAIN  65  63  93 E9        29.68F

$$

LAZ001-002-272300-
NORTHWEST LOUISIANA

CITY           SKY/WX    TMP DP  RH WIND       PRES   REMARKS
SHREVEPORT     MOSUNNY   73  54  51 E15       29.75F
BARKSDALE AFB  SUNNY     73  53  49 E10G18    29.76F
DTN SHREVEPORT SUNNY     72  51  47 E12G18    29.77F

$$

LAZ014-016-272300-
NORTHEAST LOUISIANA

CITY           SKY/WX    TMP DP  RH WIND       PRES   REMARKS
MONROE         MOSUNNY   70  54  56 NE17G25   29.82S
TALLULAH       LGT RAIN  67  54  63 NE12      29.79F

$$



USA.gov is the U.S. government's official web portal to all federal, state and local government web resources and services.